Winner, SD

7:34 AM CDT on April 25, 2017 (GMT -0500)
Winner

Weather History for KICR - July, 2013

Change the Weather History Date:

Wednesday, July 24, 2013

  Actual Average Record
Temperature  
Mean Temperature 73 °F 76 °F  
Max Temperature 87 °F 89 °F 107 °F (2012)
Min Temperature 59 °F 64 °F 59 °F (2010)
Degree Days  
Heating Degree Days 0 0  
Month to date heating degree days 0 0  
Since 1 June heating degree days 53 54  
Since 1 July heating degree days 0 0  
Cooling Degree Days 8 12  
Month to date cooling degree days 262 248  
Year to date cooling degree days 433 423  
Since 1 June cooling degree days 394 393  
Growing Degree Days 23 (Base 50)    
Moisture  
Dew Point 63 °F    
Average Humidity 72    
Maximum Humidity 93    
Minimum Humidity 50    
Precipitation  
Precipitation 0.00 in 0.08 in 0.00 in (2017)
Month to date precipitation 2.53 2.25  
Year to date precipitation 13.43 13.97  
Sea Level Pressure  
Sea Level Pressure 30.02 in    
Wind  
Wind Speed 6 mph (ESE)    
Max Wind Speed 13 mph    
Max Gust Speed 16 mph    
Visibility 10 miles    
Events      
T = Trace of Precipitation, MM = Missing Value Source: NWS Daily Summary

Daily Weather History Graph

Daily Weather History Graph

Search for Another Location

Airport or City:

Trip Planner

Search our weather history database for the weather conditions in past years. The results will help you decide how hot, cold, wet, or windy it might be!

Date:

Astronomy

Jul. 24, 2013 Rise Set
Actual Time 6:21 AM CDT 9:09 PM CDT
Civil Twilight 5:47 AM CDT 9:43 PM CDT
Nautical Twilight 5:05 AM CDT 10:25 PM CDT
Astronomical Twilight 4:16 AM CDT 11:14 PM CDT
Moon 10:09 PM CDT (7/24) 8:49 AM CDT (7/24)
Length of Visible Light 15h 55m
Length of Day
14h 48m
Waning Gibbous, 94% of the Moon is Illuminated
Jul 24
Waning Gibbous
Jul 29
Last Quarter
Aug 6
New
Aug 14
First Quarter
Aug 20
Full

Hourly Weather History & Observations

Time (CDT) Temp. Heat Index Dew Point Humidity Pressure Visibility Wind Dir Wind Speed Gust Speed Precip Events Conditions
12:53 AM 63.0 °F - 60.1 °F 90% 30.01 in 10.0 mi SSE 8.1 mph - N/A   Clear
1:53 AM 61.0 °F - 57.9 °F 90% 30.04 in 10.0 mi Calm Calm - N/A   Clear
2:53 AM 59.0 °F - 57.0 °F 93% 30.05 in 10.0 mi ESE 6.9 mph - N/A   Clear
3:53 AM 59.0 °F - 57.0 °F 93% 30.07 in 10.0 mi South 4.6 mph - N/A   Clear
4:53 AM 61.0 °F - 57.9 °F 90% 30.07 in 10.0 mi South 4.6 mph - N/A   Clear
5:53 AM 61.0 °F - 57.0 °F 87% 30.06 in 10.0 mi SSW 8.1 mph - N/A   Clear
6:53 AM 62.1 °F - 59.0 °F 90% 30.08 in 10.0 mi SSW 3.5 mph - N/A   Clear
7:53 AM 64.0 °F - 61.0 °F 90% 30.08 in 10.0 mi ESE 4.6 mph - N/A   Clear
8:53 AM 70.0 °F - 61.0 °F 73% 30.07 in 10.0 mi SSE 9.2 mph - N/A   Clear
9:53 AM 73.0 °F - 62.1 °F 68% 30.06 in 10.0 mi South 10.4 mph - N/A   Clear
10:53 AM 75.9 °F - 64.9 °F 69% 30.05 in 10.0 mi South 8.1 mph - N/A   Clear
11:53 AM 79.0 °F - 66.0 °F 64% 30.05 in 10.0 mi Variable 3.5 mph - N/A   Clear
12:53 PM 81.0 °F 83.3 °F 66.9 °F 62% 30.04 in 10.0 mi ENE 3.5 mph - N/A   Mostly Cloudy
1:53 PM 84.0 °F 86.3 °F 66.0 °F 55% 30.02 in 10.0 mi North 3.5 mph - N/A   Mostly Cloudy
2:53 PM 82.9 °F 85.4 °F 66.9 °F 58% 30.00 in 10.0 mi NE 4.6 mph - N/A   Mostly Cloudy
3:53 PM 82.0 °F 84.1 °F 66.0 °F 58% 29.98 in 10.0 mi NE 5.8 mph - N/A   Scattered Clouds
4:53 PM 87.1 °F 89.2 °F 66.0 °F 49% 29.98 in 10.0 mi North 9.2 mph - N/A   Clear
5:53 PM 84.9 °F 86.6 °F 64.9 °F 51% 29.98 in 10.0 mi ENE 9.2 mph - N/A   Partly Cloudy
6:53 PM 84.0 °F 85.8 °F 64.9 °F 53% 29.98 in 10.0 mi NE 4.6 mph - N/A   Scattered Clouds
7:53 PM 81.0 °F 83.0 °F 66.0 °F 60% 29.97 in 10.0 mi ENE 5.8 mph - N/A   Clear
8:53 PM 73.9 °F - 66.0 °F 76% 29.97 in 10.0 mi ENE 6.9 mph - N/A   Clear
9:53 PM 71.1 °F - 66.0 °F 84% 29.99 in 10.0 mi East 6.9 mph - N/A   Clear
10:53 PM 71.1 °F - 64.9 °F 81% 30.00 in 10.0 mi SE 6.9 mph - N/A   Clear
11:53 PM 70.0 °F - 64.0 °F 81% 29.99 in 10.0 mi SE 6.9 mph - N/A   Clear